Total_Precipitation_Accumulation
0.17 0.18 0.34 0.27 0.21 0.23 0.24 0.25 0.25 0.22 0.19 0.20 0.20 0.18 0.15 0.15 0.16 0.17 0.17 0.20 0.24 0.30 0.35 0.39 0.44 0.43 0.50 0.51 0.48 0.48 0.46 0.47 0.51 0.54 0.60 0.62 0.71 0.86 1.05 1.05 1.08 0.68 0.66
0.06 0.11 0.29 0.22 0.17 0.18 0.19 0.20 0.21 0.21 0.19 0.17 0.16 0.15 0.14 0.15 0.16 0.16 0.19 0.22 0.25 0.29 0.31 0.36 0.38 0.37 0.37 0.36 0.36 0.38 0.43 0.52 0.62 0.69 0.74 0.65 0.77 0.93 1.00 0.96 1.09 0.67 0.58
0.06 0.07 0.16 0.19 0.15 0.16 0.17 0.19 0.20 0.19 0.19 0.18 0.17 0.15 0.16 0.18 0.17 0.17 0.20 0.24 0.26 0.28 0.30 0.32 0.30 0.28 0.26 0.26 0.28 0.35 0.46 0.61 0.83 1.01 1.16 0.76 0.55 0.86 0.92 0.86 0.72 0.49 0.50
0.06 0.05 0.07 0.14 0.13 0.12 0.15 0.16 0.19 0.19 0.19 0.20 0.18 0.17 0.18 0.20 0.23 0.25 0.25 0.26 0.29 0.31 0.27 0.26 0.25 0.22 0.21 0.22 0.28 0.38 0.49 0.61 0.97 1.32 1.43 0.68 0.33 0.51 0.61 0.54 0.48 0.45 0.44
0.07 0.06 0.08 0.11 0.11 0.11 0.12 0.15 0.16 0.17 0.18 0.20 0.19 0.17 0.19 0.23 0.28 0.29 0.29 0.29 0.31 0.29 0.27 0.27 0.24 0.22 0.20 0.22 0.29 0.39 0.47 0.63 0.95 1.17 0.97 0.76 0.66 0.50 0.45 0.44 0.48 0.47 0.46
0.09 0.08 0.10 0.12 0.11 0.10 0.11 0.13 0.14 0.18 0.20 0.20 0.17 0.19 0.20 0.26 0.28 0.28 0.27 0.28 0.28 0.26 0.26 0.25 0.23 0.22 0.23 0.25 0.31 0.39 0.54 0.75 0.89 0.66 0.57 0.68 0.64 0.50 0.45 0.52 0.53 0.47 0.44
0.11 0.12 0.13 0.15 0.13 0.12 0.13 0.14 0.15 0.17 0.19 0.20 0.18 0.19 0.22 0.27 0.28 0.26 0.26 0.27 0.26 0.23 0.25 0.26 0.25 0.22 0.25 0.29 0.35 0.43 0.60 0.82 0.81 0.53 0.55 0.77 0.64 0.42 0.47 0.58 0.71 0.60 0.45
0.16 0.19 0.22 0.23 0.21 0.18 0.16 0.15 0.17 0.19 0.20 0.22 0.23 0.22 0.23 0.26 0.28 0.27 0.27 0.29 0.26 0.24 0.24 0.25 0.26 0.26 0.29 0.34 0.41 0.46 0.54 0.60 0.57 0.51 0.52 0.64 0.46 0.37 0.44 0.61 0.78 0.75 0.67
0.39 0.48 0.41 0.29 0.25 0.26 0.25 0.23 0.22 0.24 0.27 0.27 0.27 0.25 0.27 0.28 0.29 0.30 0.32 0.32 0.30 0.29 0.29 0.27 0.26 0.30 0.33 0.37 0.42 0.47 0.52 0.59 0.65 0.67 0.56 0.59 0.39 0.40 0.49 0.58 0.71 0.80 0.80
0.59 0.60 0.56 0.42 0.37 0.29 0.25 0.26 0.28 0.30 0.32 0.30 0.29 0.29 0.30 0.29 0.31 0.35 0.36 0.43 0.43 0.44 0.47 0.45 0.39 0.37 0.43 0.47 0.47 0.53 0.59 0.58 0.60 0.66 0.81 0.64 0.48 0.53 0.61 0.63 0.69 0.81 0.88
1.04 0.92 0.77 0.51 0.41 0.39 0.33 0.30 0.39 0.39 0.38 0.38 0.42 0.40 0.51 0.65 0.64 0.76 0.67 0.76 0.73 0.75 0.76 0.76 0.72 0.69 0.72 0.63 0.66 0.77 0.74 0.66 0.82 0.91 0.83 0.60 0.63 0.82 0.93 0.79 0.76 0.80 0.86
1.56 1.36 1.11 0.81 0.63 0.56 0.47 0.50 0.59 0.59 0.68 0.72 0.88 0.93 1.17 1.39 1.33 0.98 1.05 1.27 1.32 1.32 1.26 1.28 1.41 1.27 1.11 0.98 1.27 1.51 0.96 0.82 0.96 0.91 0.83 0.92 1.09 1.34 1.47 1.23 1.01 0.90 0.87
1.71 1.54 1.40 1.18 0.96 0.76 0.78 0.79 0.86 0.99 1.29 1.19 1.12 1.24 1.61 1.51 1.24 1.10 1.23 1.52 1.79 1.78 1.72 1.81 1.97 1.63 1.71 1.93 2.04 2.07 1.44 1.19 1.30 1.21 1.02 1.21 1.45 1.76 1.96 1.76 1.41 1.20 1.06
2.28 2.03 1.81 1.65 1.43 1.36 1.25 1.14 1.04 1.09 1.22 1.23 1.35 1.28 1.61 1.74 1.62 1.55 1.69 1.78 1.98 2.19 2.55 2.43 2.56 2.44 2.36 2.21 2.25 2.25 1.97 1.85 1.77 1.83 1.82 1.73 1.80 2.00 2.26 2.23 1.95 1.64 1.40
2.71 2.50 2.35 2.20 2.11 2.06 1.89 1.69 1.35 1.38 1.35 1.39 1.59 1.58 1.69 1.95 2.04 2.13 2.11 2.04 1.93 2.26 2.68 2.89 2.60 2.89 2.91 2.51 2.19 2.08 2.04 2.02 2.21 2.42 2.29 2.45 2.35 2.30 2.51 2.55 2.35 2.12 1.96
2.89 2.99 3.08 2.94 2.82 2.80 2.57 2.37 2.10 1.88 1.96 1.92 1.93 2.04 2.18 2.37 2.52 2.57 2.44 2.36 2.14 2.15 2.45 2.67 2.66 2.89 2.77 2.63 2.05 1.94 1.90 2.05 2.23 2.28 2.30 2.75 2.72 2.47 2.46 2.59 2.60 2.44 2.28
3.06 3.50 3.75 3.78 3.69 3.64 3.51 3.16 2.77 2.58 2.59 2.72 2.76 2.78 2.70 2.79 3.00 2.87 2.67 2.34 2.23 2.29 2.43 2.41 2.43 2.52 2.39 2.30 2.07 2.14 2.10 2.01 1.91 1.95 2.12 2.33 2.27 2.13 2.13 2.22 2.45 2.60 2.73
3.36 3.91 4.20 4.35 4.56 4.44 4.36 4.00 3.51 3.23 3.12 3.07 3.11 3.11 3.00 3.04 2.92 2.84 2.53 2.17 2.21 2.34 2.34 2.32 2.18 2.26 2.29 2.35 2.34 2.18 2.27 2.14 1.74 1.71 1.77 1.75 1.85 1.69 1.88 2.00 2.12 2.32 2.77
3.68 4.33 4.70 5.16 5.44 5.33 5.03 4.52 4.04 3.88 3.65 3.45 3.39 3.29 3.12 2.90 2.73 2.79 2.46 2.33 2.26 2.29 2.19 2.02 2.23 2.36 2.37 2.41 2.24 2.12 1.92 1.72 1.48 1.32 1.28 1.18 1.35 1.54 1.73 1.79 1.89 1.98 2.45
3.74 4.49 5.10 5.62 5.78 5.52 4.97 4.52 4.34 4.17 3.83 3.57 3.25 2.97 2.70 2.55 2.39 2.51 2.29 2.23 2.33 2.36 2.17 2.18 2.37 2.36 2.14 2.23 2.05 1.88 1.67 1.38 1.25 1.13 0.97 0.97 0.94 0.93 1.18 1.54 1.83 1.57 1.95
3.96 4.67 5.25 5.61 5.55 5.34 4.96 4.56 4.25 3.77 3.46 3.19 2.88 2.63 2.40 2.15 2.05 2.29 2.12 2.33 2.26 2.11 1.94 1.92 2.01 1.99 1.76 2.03 2.22 1.79 1.36 1.13 1.01 0.87 0.87 0.93 0.87 0.94 1.18 1.52 1.73 1.85 1.71
3.73 4.24 4.64 4.59 4.30 4.15 4.06 3.93 3.66 3.68 3.56 3.39 3.16 2.90 2.51 2.33 2.15 2.00 2.10 1.98 1.94 1.98 1.77 1.66 1.81 1.79 1.56 1.85 1.96 1.92 1.42 1.20 1.00 0.70 0.76 0.79 0.86 1.06 1.10 1.23 1.55 1.74 1.67
3.18 3.50 3.54 3.43 3.24 3.25 3.24 3.15 3.21 3.46 3.51 3.43 3.27 3.00 2.72 2.57 2.42 2.26 2.09 1.91 1.84 1.71 1.69 1.64 1.69 1.72 1.63 1.59 1.65 1.79 1.45 1.15 0.98 0.69 0.61 0.68 0.92 1.17 1.17 1.28 1.33 1.49 1.53
2.42 2.58 2.59 2.66 2.66 2.64 2.65 2.60 2.51 2.55 2.67 2.88 3.12 3.16 3.12 2.92 2.66 2.39 2.18 1.95 1.73 1.58 1.68 1.41 1.49 1.69 1.75 1.50 1.48 1.44 1.36 1.44 1.41 1.07 0.75 0.66 0.89 1.05 1.12 1.07 1.17 1.40 1.56
1.74 1.86 1.92 2.20 2.48 2.56 2.58 2.66 2.54 2.25 2.20 2.25 2.39 2.54 2.56 2.57 2.45 2.16 2.04 1.96 1.75 1.56 1.51 1.46 1.60 1.58 1.56 1.47 1.49 1.48 1.57 1.66 1.50 1.37 1.09 0.96 0.98 0.91 0.93 0.99 1.16 1.33 1.51
1.36 1.52 1.72 2.01 2.36 2.57 2.62 2.57 2.47 2.38 2.33 2.21 2.17 2.20 2.11 2.10 2.07 1.97 1.88 1.85 1.71 1.56 1.52 1.47 1.54 1.59 1.62 1.65 1.62 1.58 1.64 1.60 1.60 1.74 1.52 1.31 1.22 1.04 1.02 1.12 1.28 1.43 1.53